Terminal Aerodrome Forecast
Issued by NWS

Home | Current Version | Previous Version | Text Only | Print | Product List | Glossary On
Versions: 1 2 3 4 5 6 7 8 9 10 11 12 13 14 15 16 17 18 19 20 21 22 23 24
559
FTUS43 KDLH 151733
TAFBRD
TAF
KBRD 151733Z 1518/1618 VRB02KT P6SM SCT050 OVC090
     FM152000 VRB02KT P6SM OVC027
     FM152200 VRB03KT 3SM -SN OVC027
     FM152300 13005KT 1 1/2SM -SN OVC011
     FM161000 11008KT 3SM -SN OVC008=

USA.gov is the U.S. government's official web portal to all federal, state and local government web resources and services.